OK2AF-5 Weather Reports


Display with metric or nautical units.
time (UTC)temp
F
wind
direction
speed
MPH
gust
MPH
rain 1hr
in
rain 24hr
in
rain mn
in
humidity
%
barometer
mb
20260502181412 0 225 0.0 2.0 0.00 0.00 0.00 1018.5
20260502180517 0 225 0.0 1.0 0.00 0.00 0.00 1018.2
20260502170250 0 203 4.0 7.0 0.00 0.00 0.00 1016.9
20260502163605 0 225 3.0 8.0 0.00 0.00 0.00 1016.9
20260502162638 0 180 4.0 9.0 0.00 0.00 0.00 1017.0
20260502161745 0 180 5.0 8.0 0.00 0.00 0.00 1017.1
20260502160857 0 180 6.0 6.0 0.00 0.00 0.00 1017.2
20260502151521 0 180 7.0 9.0 0.00 0.00 0.00 1017.7
20260502150628 0 135 6.0 7.0 0.00 0.00 0.00 1017.7
20260502130133 0 45 1.0 4.0 0.00 0.00 0.00 1019.0
20260502123450 0 180 5.0 12.0 0.00 0.00 0.00 1019.4
20260502122556 0 203 5.0 10.0 0.00 0.00 0.00 1019.6
20260502121702 0 180 9.0 9.0 0.00 0.00 0.00 1019.8
20260502120804 0 0 1.0 4.0 0.00 0.00 0.00 1019.7
20260502115910 0 225 0.0 12.0 0.00 0.00 0.00 1019.7
20260502115016 0 180 5.0 12.0 0.00 0.00 0.00 1019.9
20260502114122 0 203 11.0 16.0 0.00 0.00 0.00 1020.4
20260502113228 0 180 7.0 8.0 0.00 0.00 0.00 1020.5
20260502112333 0 90 4.0 10.0 0.00 0.00 0.00 1020.5
20260502111438 0 180 7.0 10.0 0.00 0.00 0.00 1020.7
20260502110543 0 45 6.0 8.0 0.00 0.00 0.00 1020.9
20260502105647 0 90 1.0 7.0 0.00 0.00 0.00 1021.0
20260502104752 0 135 6.0 11.0 0.00 0.00 0.00 1021.1
20260502103853 0 225 1.0 4.0 0.00 0.00 0.00 1021.1
20260502102959 0 270 1.0 6.0 0.00 0.00 0.00 1021.3
20260502102105 0 225 0.0 9.0 0.00 0.00 0.00 1021.3
20260502101207 0 180 9.0 12.0 0.00 0.00 0.00 1021.5
20260502100311 0 180 8.0 9.0 0.00 0.00 0.00 1021.7
20260502090939 0 180 3.0 8.0 0.00 0.00 0.00 1022.4
20260502071338 0 158 3.0 7.0 0.00 0.00 0.00 1023.3
20260502070444 0 180 3.0 5.0 0.00 0.00 0.00 1023.4
20260502065549 0 225 2.0 3.0 0.00 0.00 0.00 1023.7
20260502064653 0 0 1.0 2.0 0.00 0.00 0.00 1023.9
20260502063759 0 0 0.0 2.0 0.00 0.00 0.00 1024.0
20260502062905 0 0 0.0 2.0 0.00 0.00 0.00 1024.5
20260502062006 0 0 0.0 1.0 0.00 0.00 0.00 1024.8
20260502061109 0 0 1.0 1.0 0.00 0.00 0.00 1025.1
20260502060209 0 0 0.0 1.0 0.00 0.00 0.00 1025.3
20260502055314 0 0 0.0 1.0 0.00 0.00 0.00 1025.6
20260502054421 0 0 0.0 0.0 0.00 0.00 0.00 1025.9
20260502053527 0 0 0.0 1.0 0.00 0.00 0.00 1026.1
20260502052634 0 0 0.0 0.0 0.00 0.00 0.00 1026.3
20260502051739 0 0 0.0 0.0 0.00 0.00 0.00 1026.4
20260502050842 0 0 0.0 0.0 0.00 0.00 0.00 1026.6
20260502045947 0 0 0.0 0.0 0.00 0.00 0.00 1026.7
20260502045052 0 0 0.0 0.0 0.00 0.00 0.00 1026.7
20260502044159 0 0 0.0 0.0 0.00 0.00 0.00 1027.4
20260502043305 0 0 0.0 1.0 0.00 0.00 0.00 1027.4
20260502042410 0 0 0.0 0.0 0.00 0.00 0.00 1027.5
20260502041516 0 0 0.0 0.0 0.00 0.00 0.00 1027.6
20260502040619 0 0 0.0 0.0 0.00 0.00 0.00 1027.8
20260502035724 0 0 0.0 0.0 0.00 0.00 0.00 1027.9
20260502034827 0 0 0.0 0.0 0.00 0.00 0.00 1027.9
20260502033933 0 0 0.0 0.0 0.00 0.00 0.00 1027.9
20260502033037 0 0 0.0 1.0 0.00 0.00 0.00 1028.0
20260502032142 0 0 1.0 1.0 0.00 0.00 0.00 1028.0
20260502031248 0 0 0.0 2.0 0.00 0.00 0.00 1027.9
20260502030351 0 0 2.0 2.0 0.00 0.00 0.00 1027.8
20260502025457 0 0 0.0 0.0 0.00 0.00 0.00 1027.8
20260502024602 0 0 0.0 1.0 0.00 0.00 0.00 1027.8
20260502023707 0 0 0.0 0.0 0.00 0.00 0.00 1027.8
20260502022812 0 0 0.0 0.0 0.00 0.00 0.00 1028.0
20260502021918 0 0 0.0 0.0 0.00 0.00 0.00 1027.9
20260502021024 0 0 0.0 0.0 0.00 0.00 0.00 1028.0
20260502020124 0 0 0.0 0.0 0.00 0.00 0.00 1028.0
20260502015223 0 0 0.0 1.0 0.00 0.00 0.00 1027.9
20260502014328 0 0 0.0 0.0 0.00 0.00 0.00 1027.8
20260502013432 0 0 0.0 0.0 0.00 0.00 0.00 1027.9
20260502012537 0 0 0.0 0.0 0.00 0.00 0.00 1028.0
20260502011642 0 0 0.0 0.0 0.00 0.00 0.00 1027.9
20260502010746 0 0 0.0 0.0 0.00 0.00 0.00 1027.9
20260502005853 0 0 0.0 0.0 0.00 0.00 0.00 1027.8
20260502004959 0 0 0.0 0.0 0.00 0.00 0.00 1027.8
20260502004103 0 0 0.0 0.0 0.00 0.00 0.00 1027.9
20260502003208 0 0 0.0 0.0 0.00 0.00 0.00 1027.9
20260502002314 0 0 0.0 2.0 0.00 0.00 0.00 1027.8
20260502001420 0 0 0.0 0.0 0.00 0.00 0.00 1027.8
20260502000525 0 0 0.0 0.0 0.00 0.00 0.00 1027.8
20260501235631 0 0 0.0 0.0 0.00 0.00 0.00 1027.7
20260501234736 0 0 0.0 0.0 0.00 0.00 0.00 1027.8
20260501233840 0 0 0.0 0.0 0.00 0.00 0.00 1027.8
20260501232945 0 0 0.0 0.0 0.00 0.00 0.00 1027.9
20260501232050 0 0 0.0 1.0 0.00 0.00 0.00 1027.8
20260501231157 0 0 0.0 1.0 0.00 0.00 0.00 1027.8
20260501230301 0 0 0.0 0.0 0.00 0.00 0.00 1027.8
20260501225406 0 0 0.0 0.0 0.00 0.00 0.00 1027.8
20260501224509 0 0 0.0 0.0 0.00 0.00 0.00 1027.8
20260501223614 0 0 0.0 0.0 0.00 0.00 0.00 1027.7
20260501222719 0 0 0.0 0.0 0.00 0.00 0.00 1027.9
20260501221821 0 0 0.0 0.0 0.00 0.00 0.00 1027.7
20260501220926 0 0 0.0 3.0 0.00 0.00 0.00 1027.8
20260501220031 0 0 0.0 2.0 0.00 0.00 0.00 1027.7
20260501215135 0 0 0.0 0.0 0.00 0.00 0.00 1027.5
20260501214241 0 0 0.0 0.0 0.00 0.00 0.00 1027.5
20260501213345 0 0 0.0 0.0 0.00 0.00 0.00 1027.6
20260501212451 0 0 0.0 2.0 0.00 0.00 0.00 1027.6
20260501211553 0 0 1.0 2.0 0.00 0.00 0.00 1027.3
20260501210658 0 0 2.0 2.0 0.00 0.00 0.00 1027.2
20260501205759 0 0 0.0 2.0 0.00 0.00 0.00 1027.1
20260501204905 0 0 0.0 0.0 0.00 0.00 0.00 1027.0
20260501204008 0 0 0.0 0.0 0.00 0.00 0.00 1027.2
20260501203111 0 0 0.0 0.0 0.00 0.00 0.00 1027.0
20260501202211 0 0 0.0 0.0 0.00 0.00 0.00 1027.0
20260501201315 0 0 0.0 0.0 0.00 0.00 0.00 1026.9
20260501200414 0 0 0.0 1.0 0.00 0.00 0.00 1026.7
20260501195501 0 0 0.0 2.0 0.00 0.00 0.00 1026.5
20260501194601 0 0 0.0 0.0 0.00 0.00 0.00 1026.4
20260501193704 0 0 0.0 0.0 0.00 0.00 0.00 1026.3
20260501192806 0 0 0.0 0.0 0.00 0.00 0.00 1026.2
20260501191911 0 0 0.0 1.0 0.00 0.00 0.00 1026.1
20260501191016 0 0 0.0 3.0 0.00 0.00 0.00 1025.9
20260501190119 0 0 2.0 3.0 0.00 0.00 0.00 1025.7
20260501185225 0 0 0.0 1.0 0.00 0.00 0.00 1025.6
20260501184331 0 0 0.0 1.0 0.00 0.00 0.00 1025.3
20260501183438 0 0 1.0 3.0 0.00 0.00 0.00 1025.1
20260501182543 0 0 0.0 3.0 0.00 0.00 0.00 1024.9
20260501181648 0 0 0.0 4.0 0.00 0.00 0.00 1024.7